Vorticity
10 9 8 8 8 9 10 12 15 17 20 23 25 27 28 28 29 29 28 28 28 27 27 26 25 25 25 24 25 24 23 24 24 24 24 24 24 24 25 27 29 31 34 33 31 32 31 29 28 29 29 30 31 27 24 24 23 20 18 15 12 11 11
8 8 9 11 13 16 19 22 25 27 29 29 29 29 29 28 28 27 27 26 26 25 25 24 24 24 25 24 24 23 21 20 19 18 17 17 18 19 20 21 23 26 29 30 28 29 30 29 27 26 27 28 29 27 25 25 24 24 23 22 20 17 16
10 13 16 19 23 26 29 31 31 31 30 29 28 27 26 26 25 25 25 25 25 25 25 25 26 27 28 28 28 28 26 23 20 17 15 14 14 15 16 17 18 20 23 26 27 26 27 28 27 26 26 25 25 25 24 23 23 23 23 22 23 23 21
19 23 26 28 30 31 31 30 29 28 27 26 25 25 24 24 23 22 22 22 21 21 20 21 23 23 24 25 25 25 24 23 21 20 18 18 16 15 15 14 14 15 17 19 22 24 24 25 25 25 25 25 24 24 24 22 20 21 23 22 22 22 22
28 29 30 31 31 30 29 28 26 25 25 23 22 22 21 20 20 19 19 19 19 19 19 18 18 17 18 19 19 19 18 18 19 20 21 20 19 18 17 16 15 14 15 15 17 19 20 21 22 23 24 25 25 23 24 24 21 18 20 21 22 23 21
30 30 30 30 29 28 28 27 27 26 25 24 23 23 22 21 20 19 18 18 17 18 19 20 20 18 16 14 13 14 15 16 17 18 19 21 21 19 18 17 17 15 15 15 15 16 16 17 18 20 21 23 25 25 23 24 23 21 21 19 20 24 25
30 30 30 31 32 34 36 36 36 35 35 34 33 32 31 30 28 27 25 22 21 19 18 18 19 19 17 15 13 13 13 15 16 17 18 19 19 19 18 17 17 16 16 15 14 15 15 14 15 17 18 20 23 25 24 23 21 21 25 25 21 20 24
30 33 38 43 47 48 47 45 44 43 42 40 38 37 36 34 32 31 30 29 28 26 22 18 15 15 16 17 17 16 14 13 14 16 18 18 18 18 18 18 16 16 16 15 14 14 14 14 14 14 15 16 19 21 24 25 23 19 20 26 29 25 22
42 48 52 52 48 44 43 45 48 50 50 49 46 44 42 40 38 36 34 33 32 30 28 23 18 15 15 17 19 18 16 14 13 14 16 18 18 18 18 19 18 17 16 15 15 14 13 14 14 14 14 14 16 18 19 22 25 23 17 16 23 29 27
50 46 39 30 23 22 24 28 32 37 42 48 52 53 50 47 44 42 40 36 32 30 29 28 25 20 15 14 16 17 18 17 15 14 14 15 17 18 19 19 18 18 17 16 15 14 13 13 13 14 14 14 14 16 17 18 20 24 23 17 14 18 26
30 21 15 9 7 8 9 10 11 14 20 27 35 43 49 48 45 43 41 40 36 32 29 27 27 25 20 15 13 14 17 19 17 15 13 13 15 17 19 19 19 18 18 17 15 14 13 13 14 14 14 14 14 13 16 17 17 18 21 21 18 14 17
12 9 9 7 6 5 5 6 7 6 8 10 14 21 32 41 46 46 43 42 41 39 36 33 29 26 23 20 15 13 14 17 18 16 14 13 13 15 18 19 19 18 17 17 16 15 15 14 14 14 14 15 14 12 13 14 16 17 17 18 20 16 12
8 8 8 7 6 4 3 6 6 5 5 7 6 7 12 20 31 41 46 47 45 43 41 40 37 34 29 24 19 14 13 15 17 17 16 14 13 13 16 18 19 18 18 19 17 15 15 14 14 14 14 14 14 13 14 14 14 15 15 15 17 17 12
6 6 8 8 8 6 3 4 7 6 5 6 5 5 6 6 10 19 29 40 47 50 48 45 42 40 36 31 25 19 14 13 15 17 18 17 14 12 13 17 20 19 17 18 19 17 15 14 14 15 15 15 14 13 13 15 14 12 12 14 15 16 14
7 8 9 9 9 8 3 2 5 5 5 6 6 5 5 5 5 6 9 15 26 37 46 51 53 50 44 38 31 26 20 15 13 15 18 19 17 14 13 15 17 19 18 17 17 18 17 15 14 15 15 15 16 15 13 14 14 11 10 11 13 14 15
7 7 9 9 8 9 6 2 3 5 4 5 6 6 5 5 4 5 5 5 7 12 20 31 44 53 54 49 41 34 28 20 16 16 17 19 18 17 15 14 14 16 18 17 16 17 18 17 16 15 15 15 16 16 15 14 14 13 9 9 11 13 15
6 4 7 8 7 9 8 4 3 5 4 4 5 6 6 6 6 5 5 5 4 5 6 8 16 27 39 46 47 46 42 35 27 21 17 18 21 20 17 13 12 14 18 19 17 17 18 18 17 15 14 15 16 17 17 16 16 15 12 9 9 10 12
7 4 4 6 6 7 8 6 5 6 6 5 5 6 5 6 6 6 5 5 4 4 5 6 6 8 13 20 28 36 43 47 47 42 31 23 20 21 20 16 13 13 16 19 18 16 15 16 17 18 15 14 15 16 17 17 17 16 14 11 9 9 10
6 4 3 4 5 6 7 7 5 6 6 5 5 6 6 6 6 6 5 6 6 5 5 5 6 6 6 7 9 12 18 27 38 48 51 43 31 22 18 18 20 18 14 14 17 18 18 16 15 16 17 16 14 14 15 17 17 17 17 14 10 8 9
4 4 3 3 4 5 6 6 6 5 6 6 5 6 6 6 6 6 6 5 6 6 6 6 6 6 6 6 6 6 6 7 11 21 35 45 48 42 30 20 17 19 18 16 16 16 18 18 16 15 16 16 15 15 14 15 16 17 18 18 14 9 7
3 3 3 3 3 4 5 6 6 6 5 5 5 5 6 6 5 5 6 5 5 5 6 7 7 7 7 7 6 6 5 5 6 6 9 18 33 45 48 40 28 19 16 17 18 17 17 17 17 16 16 16 16 15 14 14 15 17 17 18 18 15 9
2 3 4 3 2 2 3 4 5 7 7 6 5 5 5 5 5 6 6 5 4 4 5 6 6 6 7 8 8 8 7 5 5 6 6 6 9 18 31 44 47 39 28 20 16 16 17 17 17 17 16 15 15 16 15 14 14 14 16 17 18 18 15
4 5 6 5 3 0 1 2 3 4 5 5 6 6 6 5 5 5 6 6 5 4 3 3 5 5 6 7 7 8 9 9 7 6 5 6 7 7 8 17 30 41 46 42 31 21 15 14 15 17 19 17 15 15 15 16 15 14 14 15 16 18 19
5 6 7 8 6 3 2 3 3 2 2 3 4 5 6 7 6 5 5 6 7 7 5 3 3 4 4 5 6 6 7 9 10 9 7 5 6 7 7 7 9 16 27 39 44 42 36 25 16 13 15 17 18 17 15 14 15 16 15 15 15 15 17
6 8 9 8 8 8 8 6 4 3 3 3 4 5 5 6 7 7 7 6 7 8 8 5 5 5 5 4 5 5 5 6 6 8 10 10 7 6 6 8 9 8 9 14 23 35 43 44 38 30 22 16 14 15 17 17 16 15 15 15 15 15 15
7 8 8 9 9 10 11 10 8 8 8 6 6 7 6 5 6 7 7 7 7 8 9 7 6 6 7 6 5 5 5 5 5 5 6 8 10 10 7 5 6 7 9 10 10 12 19 28 38 45 45 37 27 18 14 14 16 17 17 17 15 15 15
7 8 8 8 9 10 12 12 11 10 10 8 7 7 7 6 7 8 8 7 8 9 10 9 8 8 8 8 9 8 6 6 6 7 6 5 7 9 10 9 7 4 5 8 9 9 9 10 15 24 34 42 47 42 31 23 19 15 15 17 18 17 16
7 9 8 6 8 10 9 9 10 10 10 10 9 9 9 9 9 10 9 8 8 11 12 10 9 10 11 11 11 11 9 9 9 8 7 6 6 6 7 9 10 9 7 5 4 6 8 8 8 8 11 18 29 38 43 44 41 32 23 18 16 16 18
7 9 7 5 7 8 5 7 10 10 10 10 9 8 9 10 10 10 9 6 7 11 12 10 10 11 11 11 13 13 12 11 12 11 10 9 8 8 7 6 8 9 10 9 6 5 4 4 5 5 6 8 10 14 20 30 39 44 43 38 30 22 18
7 7 6 5 7 8 7 9 10 9 8 9 8 7 7 8 8 8 7 6 8 10 11 9 9 11 11 10 11 13 12 12 12 12 12 12 12 11 9 9 8 7 8 9 9 8 7 5 4 3 3 4 6 7 7 9 15 22 31 38 43 42 36
6 7 7 7 9 9 9 9 9 8 8 8 7 7 7 7 8 8 7 8 9 10 10 9 10 12 11 9 9 10 10 10 11 11 11 13 14 13 12 12 12 10 9 8 7 8 8 7 7 6 5 4 3 3 4 5 6 8 10 15 23 33 39
7 8 9 8 9 9 9 9 9 9 9 8 8 8 8 8 9 8 8 9 10 11 11 10 11 13 13 11 10 10 8 8 9 9 9 11 12 13 13 14 14 14 12 10 7 7 8 7 6 7 6 6 6 5 5 5 5 5 5 6 8 11 17
8 9 9 9 8 8 8 9 9 9 9 9 8 7 8 9 9 8 9 9 9 11 12 12 12 14 14 14 14 13 11 10 9 8 8 9 10 12 13 13 14 14 14 13 11 9 9 8 8 9 7 6 6 6 6 6 7 6 5 5 6 7 8
7 8 9 9 8 9 10 10 10 10 10 9 9 9 10 10 10 9 10 9 8 9 12 13 14 15 14 14 16 16 16 15 12 10 10 9 9 10 12 13 15 15 15 13 12 10 10 9 9 9 9 9 8 6 5 4 5 7 8 7 7 6 6
8 8 9 9 9 10 11 11 11 11 10 10 10 10 10 10 11 11 11 12 11 11 12 13 15 16 16 15 15 16 17 18 17 15 14 13 11 11 12 13 15 16 15 13 11 9 9 9 8 8 8 7 7 7 7 6 5 4 5 6 7 6 6
11 10 9 9 9 10 11 11 11 10 10 10 10 9 7 7 9 10 11 13 14 14 15 17 16 16 17 17 16 15 16 18 18 17 17 17 15 14 14 14 14 14 14 12 11 9 8 7 7 8 8 8 8 8 8 9 9 7 5 5 5 5 6
Height
5462 5456 5449 5443 5436 5429 5423 5416 5410 5403 5396 5390 5384 5378 5372 5368 5364 5360 5356 5353 5350 5346 5341 5338 5336 5333 5330 5327 5325 5322 5317 5313 5311 5310 5311 5309 5309 5309 5306 5306 5307 5310 5323 5334 5329 5329 5333 5326 5322 5327 5331 5338 5344 5340 5339 5345 5348 5351 5358 5364 5371 5375 5378
5447 5440 5433 5426 5419 5412 5406 5399 5392 5385 5378 5372 5366 5361 5355 5349 5345 5343 5339 5335 5332 5329 5324 5322 5320 5318 5315 5313 5310 5308 5303 5300 5296 5295 5297 5296 5294 5295 5294 5291 5293 5295 5301 5314 5316 5313 5314 5311 5306 5309 5313 5318 5324 5325 5324 5327 5330 5332 5336 5342 5348 5354 5357
5432 5425 5417 5410 5403 5396 5389 5381 5374 5367 5360 5354 5349 5344 5339 5334 5329 5326 5322 5319 5316 5313 5309 5307 5306 5304 5301 5299 5297 5294 5290 5285 5283 5281 5281 5283 5281 5281 5283 5281 5280 5283 5286 5294 5301 5300 5298 5296 5293 5293 5297 5300 5305 5309 5311 5312 5313 5315 5318 5322 5327 5333 5337
5416 5409 5402 5394 5387 5380 5373 5365 5358 5351 5345 5338 5333 5328 5324 5319 5314 5310 5307 5304 5301 5298 5295 5293 5292 5290 5288 5286 5283 5280 5276 5272 5269 5268 5267 5269 5270 5269 5271 5271 5270 5271 5273 5277 5284 5287 5284 5283 5282 5281 5283 5285 5289 5293 5296 5298 5300 5301 5303 5306 5309 5314 5319
5402 5394 5387 5380 5373 5366 5359 5351 5344 5337 5331 5324 5318 5313 5309 5304 5300 5296 5292 5290 5287 5284 5282 5280 5279 5277 5274 5272 5270 5266 5263 5260 5258 5257 5256 5257 5258 5259 5259 5260 5261 5261 5262 5264 5270 5273 5272 5270 5270 5270 5271 5272 5275 5278 5281 5284 5286 5287 5289 5292 5294 5297 5302
5388 5381 5374 5368 5360 5353 5346 5339 5331 5324 5318 5311 5304 5299 5294 5289 5285 5282 5278 5276 5273 5271 5270 5267 5265 5264 5260 5258 5256 5254 5252 5251 5249 5247 5247 5247 5247 5248 5248 5249 5250 5250 5251 5253 5256 5259 5260 5259 5259 5260 5260 5260 5262 5266 5268 5270 5273 5275 5276 5279 5281 5283 5287
5377 5370 5364 5357 5350 5342 5335 5327 5319 5312 5305 5298 5291 5286 5281 5276 5271 5268 5265 5262 5260 5258 5256 5254 5251 5249 5247 5245 5244 5244 5242 5241 5240 5239 5238 5238 5237 5237 5237 5238 5240 5240 5240 5242 5244 5245 5246 5247 5248 5249 5249 5250 5251 5254 5256 5258 5261 5263 5263 5265 5269 5270 5273
5368 5362 5355 5348 5341 5333 5325 5317 5309 5302 5295 5288 5280 5274 5269 5264 5259 5255 5252 5249 5247 5245 5243 5241 5239 5236 5235 5234 5233 5233 5233 5231 5231 5230 5230 5229 5228 5227 5228 5228 5229 5230 5230 5231 5233 5234 5234 5235 5237 5238 5239 5240 5241 5243 5245 5246 5249 5252 5253 5254 5256 5257 5261
5360 5355 5349 5342 5334 5326 5318 5311 5303 5295 5287 5279 5272 5265 5259 5254 5249 5244 5241 5238 5235 5233 5230 5228 5227 5226 5225 5224 5223 5223 5222 5222 5221 5221 5222 5221 5219 5218 5218 5219 5219 5219 5220 5221 5222 5223 5223 5224 5226 5227 5228 5231 5232 5233 5235 5236 5238 5241 5244 5246 5247 5247 5248
5353 5349 5344 5337 5330 5322 5315 5307 5299 5291 5282 5273 5266 5260 5253 5247 5241 5235 5231 5228 5224 5221 5219 5217 5216 5216 5215 5214 5214 5213 5212 5213 5213 5212 5212 5212 5211 5210 5210 5210 5210 5210 5210 5211 5212 5213 5213 5214 5216 5217 5219 5221 5223 5224 5226 5227 5228 5231 5233 5236 5238 5239 5239
5349 5344 5339 5333 5327 5320 5312 5305 5297 5288 5280 5271 5262 5255 5248 5241 5235 5229 5224 5220 5216 5213 5210 5208 5207 5206 5205 5205 5205 5204 5204 5204 5204 5204 5203 5203 5202 5202 5201 5201 5201 5201 5201 5201 5202 5203 5204 5205 5207 5208 5209 5212 5214 5214 5216 5217 5219 5222 5225 5226 5229 5232 5232
5345 5340 5335 5330 5323 5316 5309 5302 5295 5287 5279 5271 5261 5253 5245 5237 5231 5225 5219 5214 5210 5206 5204 5201 5199 5198 5197 5196 5197 5196 5196 5197 5196 5195 5195 5195 5194 5193 5193 5193 5193 5193 5192 5192 5193 5195 5195 5196 5197 5199 5201 5202 5203 5205 5207 5209 5211 5214 5217 5217 5219 5223 5224
5341 5336 5331 5326 5320 5313 5306 5299 5293 5285 5277 5270 5262 5253 5245 5237 5230 5223 5216 5211 5206 5202 5199 5196 5194 5192 5191 5189 5189 5189 5189 5190 5189 5188 5188 5187 5187 5186 5185 5184 5184 5183 5183 5184 5185 5186 5187 5187 5188 5191 5193 5192 5193 5196 5199 5201 5204 5206 5207 5208 5210 5214 5216
5337 5332 5328 5323 5317 5310 5304 5297 5291 5284 5276 5269 5262 5254 5246 5238 5231 5224 5217 5210 5205 5200 5196 5192 5189 5188 5186 5184 5183 5183 5183 5184 5183 5182 5181 5181 5180 5179 5178 5178 5176 5175 5174 5175 5176 5177 5179 5179 5180 5182 5184 5184 5185 5188 5191 5193 5195 5196 5197 5199 5202 5205 5206
5334 5329 5324 5319 5314 5308 5301 5294 5288 5282 5275 5268 5261 5254 5246 5239 5232 5225 5218 5212 5206 5200 5195 5190 5187 5184 5183 5181 5179 5178 5178 5178 5177 5176 5176 5174 5173 5172 5172 5171 5169 5167 5167 5166 5167 5168 5170 5171 5172 5174 5175 5176 5178 5180 5182 5185 5186 5187 5188 5191 5194 5196 5197
5330 5326 5321 5316 5311 5305 5299 5292 5286 5280 5273 5267 5261 5254 5247 5240 5233 5226 5220 5214 5207 5202 5196 5191 5187 5183 5180 5178 5176 5174 5174 5173 5172 5171 5170 5169 5167 5166 5166 5164 5161 5160 5160 5159 5159 5160 5161 5163 5165 5166 5167 5169 5170 5172 5174 5176 5178 5179 5180 5183 5186 5187 5189
5327 5322 5318 5313 5308 5303 5297 5290 5284 5278 5272 5266 5260 5254 5248 5241 5234 5228 5221 5215 5209 5204 5198 5193 5188 5184 5180 5177 5174 5172 5170 5168 5167 5166 5165 5163 5162 5161 5160 5157 5154 5153 5153 5152 5152 5153 5153 5155 5156 5157 5159 5160 5161 5163 5166 5168 5170 5170 5172 5175 5177 5179 5181
5324 5319 5314 5310 5305 5300 5295 5289 5282 5277 5271 5265 5259 5254 5248 5241 5235 5229 5223 5217 5211 5205 5200 5195 5190 5186 5182 5177 5174 5170 5167 5164 5162 5160 5159 5158 5157 5156 5154 5151 5149 5148 5147 5146 5145 5145 5146 5147 5148 5149 5150 5152 5153 5155 5157 5159 5161 5162 5163 5166 5168 5171 5173
5321 5316 5310 5306 5302 5297 5292 5287 5281 5275 5270 5264 5258 5252 5247 5241 5235 5229 5223 5218 5212 5207 5201 5196 5192 5187 5183 5179 5174 5170 5166 5163 5160 5157 5154 5153 5152 5150 5148 5145 5144 5143 5141 5139 5139 5139 5139 5139 5140 5141 5142 5144 5145 5147 5148 5150 5152 5154 5155 5158 5160 5162 5164
5318 5314 5308 5302 5298 5293 5289 5284 5279 5273 5268 5262 5257 5251 5246 5240 5235 5229 5223 5218 5212 5207 5202 5197 5192 5188 5184 5179 5175 5171 5166 5162 5159 5155 5152 5149 5146 5144 5142 5140 5138 5137 5135 5134 5133 5132 5132 5132 5132 5133 5134 5136 5137 5138 5140 5141 5143 5145 5147 5150 5151 5153 5155
5315 5311 5305 5299 5294 5290 5285 5280 5276 5271 5266 5260 5255 5249 5244 5239 5234 5229 5223 5217 5212 5207 5202 5197 5192 5188 5184 5179 5175 5171 5166 5162 5158 5154 5151 5147 5144 5141 5138 5135 5133 5131 5129 5128 5127 5126 5126 5125 5125 5125 5126 5128 5129 5130 5131 5133 5134 5136 5138 5140 5143 5144 5146
5312 5308 5303 5297 5291 5286 5281 5276 5272 5268 5263 5258 5252 5247 5242 5237 5232 5227 5223 5217 5211 5206 5201 5196 5191 5187 5183 5179 5175 5170 5166 5161 5157 5153 5149 5146 5142 5139 5135 5132 5129 5126 5123 5122 5121 5121 5120 5118 5118 5118 5119 5120 5121 5121 5123 5124 5126 5127 5129 5131 5133 5135 5137
5309 5305 5301 5296 5290 5283 5278 5272 5268 5263 5259 5254 5249 5244 5239 5234 5229 5225 5221 5216 5211 5205 5200 5195 5190 5186 5181 5177 5173 5169 5165 5161 5156 5152 5148 5144 5141 5137 5133 5130 5127 5123 5120 5118 5116 5114 5113 5112 5111 5111 5112 5112 5112 5113 5114 5116 5117 5118 5120 5122 5124 5126 5128
5306 5302 5299 5294 5289 5282 5276 5270 5264 5259 5255 5250 5246 5241 5236 5231 5226 5222 5217 5213 5209 5204 5199 5194 5189 5184 5180 5175 5171 5167 5163 5159 5155 5151 5147 5143 5139 5135 5132 5128 5125 5121 5118 5115 5112 5109 5108 5106 5105 5105 5105 5105 5105 5105 5106 5107 5108 5110 5111 5113 5115 5116 5118
5303 5299 5296 5292 5287 5282 5276 5269 5262 5257 5252 5247 5242 5237 5232 5228 5223 5218 5214 5209 5205 5201 5196 5191 5186 5182 5177 5173 5169 5164 5160 5156 5152 5148 5145 5141 5137 5134 5130 5126 5123 5119 5116 5113 5109 5106 5104 5102 5100 5099 5099 5099 5098 5098 5098 5099 5100 5101 5103 5104 5106 5108 5109
5300 5295 5292 5288 5284 5279 5274 5268 5261 5256 5250 5245 5240 5235 5229 5224 5219 5214 5209 5205 5201 5197 5192 5187 5182 5178 5174 5170 5166 5162 5157 5153 5149 5145 5141 5138 5134 5131 5128 5124 5121 5117 5114 5111 5107 5104 5101 5098 5096 5094 5093 5092 5092 5091 5091 5091 5092 5093 5094 5096 5098 5099 5100
5295 5290 5287 5284 5279 5275 5271 5265 5259 5254 5248 5242 5237 5232 5226 5221 5216 5210 5205 5200 5195 5192 5188 5182 5177 5173 5169 5165 5161 5157 5154 5150 5146 5142 5138 5134 5131 5128 5125 5121 5118 5115 5111 5108 5105 5102 5099 5096 5094 5091 5089 5088 5086 5085 5084 5084 5085 5086 5086 5087 5089 5091 5091
5290 5285 5281 5278 5274 5270 5266 5262 5255 5250 5245 5239 5234 5228 5223 5218 5213 5207 5202 5196 5191 5187 5182 5177 5171 5167 5163 5159 5155 5151 5148 5144 5141 5137 5133 5130 5127 5124 5121 5118 5115 5112 5109 5106 5102 5099 5096 5094 5092 5089 5087 5085 5083 5081 5079 5079 5079 5079 5079 5079 5081 5082 5083
5285 5280 5276 5273 5269 5264 5261 5257 5251 5245 5240 5235 5230 5224 5220 5215 5210 5205 5199 5193 5188 5184 5179 5173 5167 5162 5158 5153 5149 5145 5141 5137 5134 5131 5127 5123 5121 5119 5116 5113 5111 5108 5105 5102 5099 5096 5093 5091 5089 5086 5084 5082 5080 5078 5076 5075 5074 5073 5073 5072 5073 5074 5074
5280 5276 5271 5267 5264 5259 5255 5251 5247 5241 5235 5230 5225 5219 5215 5210 5205 5200 5195 5189 5185 5181 5176 5170 5164 5159 5153 5148 5145 5140 5136 5132 5128 5125 5121 5117 5114 5112 5110 5108 5105 5103 5100 5098 5095 5092 5090 5087 5085 5083 5081 5079 5077 5075 5073 5072 5070 5069 5068 5067 5066 5066 5066
5276 5271 5266 5262 5259 5255 5250 5245 5241 5236 5231 5225 5220 5214 5209 5205 5200 5195 5189 5184 5180 5176 5171 5165 5160 5155 5149 5143 5139 5135 5130 5126 5123 5119 5115 5112 5108 5105 5103 5101 5099 5097 5095 5092 5090 5087 5085 5083 5081 5079 5077 5075 5073 5071 5069 5068 5067 5065 5064 5063 5062 5061 5060
5274 5269 5264 5258 5253 5249 5246 5242 5236 5231 5226 5220 5215 5210 5204 5199 5195 5189 5183 5178 5174 5170 5166 5160 5155 5150 5145 5138 5133 5129 5124 5119 5116 5112 5109 5106 5102 5099 5096 5094 5092 5090 5088 5086 5084 5082 5080 5077 5076 5074 5072 5070 5069 5067 5065 5064 5062 5061 5060 5059 5057 5056 5055
5271 5266 5262 5256 5250 5245 5241 5237 5232 5227 5222 5216 5210 5205 5199 5194 5189 5183 5176 5171 5167 5163 5159 5154 5149 5144 5139 5133 5128 5123 5118 5113 5109 5105 5102 5099 5096 5092 5089 5087 5085 5083 5081 5080 5078 5076 5073 5071 5070 5068 5067 5065 5063 5062 5060 5058 5057 5056 5055 5054 5052 5051 5050
5269 5263 5258 5253 5247 5242 5237 5233 5228 5223 5217 5211 5205 5199 5194 5189 5184 5178 5170 5163 5158 5154 5150 5146 5141 5137 5131 5126 5121 5116 5111 5107 5102 5098 5095 5092 5089 5085 5083 5080 5078 5076 5074 5072 5071 5069 5067 5065 5063 5062 5060 5059 5057 5056 5054 5052 5051 5050 5049 5048 5047 5046 5044
5269 5262 5255 5249 5243 5238 5234 5229 5224 5218 5212 5205 5199 5193 5188 5183 5179 5173 5166 5158 5151 5145 5141 5136 5132 5128 5123 5118 5113 5109 5104 5100 5095 5091 5087 5084 5081 5078 5075 5073 5071 5069 5067 5065 5064 5062 5060 5058 5057 5055 5053 5052 5051 5049 5047 5046 5044 5043 5042 5041 5040 5039 5038
5266 5261 5254 5247 5240 5234 5229 5224 5219 5213 5207 5200 5194 5187 5181 5176 5171 5166 5160 5154 5147 5139 5133 5128 5123 5118 5114 5109 5105 5100 5096 5092 5088 5084 5080 5077 5074 5071 5068 5066 5063 5062 5060 5058 5056 5054 5053 5052 5050 5048 5047 5045 5044 5041 5040 5038 5037 5036 5036 5034 5033 5032 5031